[[{"header":{"parameterUnit":"m.s-1","parameterCategory":1,"la1":30.2991,"la2":30.254,"lo1":-89.0895,"lo2":-89.0444,"dy":0.0017,"dx":0.0017,"nx":28,"ny":28,"refTime":"2025-11-19T03:00:00:Z","depth":0,"parameterNumber":2,"parameterNumberName":"U-component_of_WINDS"},"data":[0,0,0,0,0,0,0,0,0,0,0,0,0,0,0,0,0,0,0,0,0,0,0,0,0,0,0,0,0,0,0,0,0,0,0,0,0,0,0,0,0,0,0,0,0,0,0,0,0,0,0,0,0,0,0,0,0,0,-0.2803,-0.2802,0,-0.2698,-0.2697,-0.2695,-0.2641,-0.2641,-0.2641,-0.2641,-0.253,-0.2527,-0.2524,0,0,0,0,0,0,0,0,0,0,0,0,0,-0.2956,-0.2954,-0.2803,-0.2802,-0.2801,-0.2698,-0.2697,-0.2695,-0.2641,-0.2641,-0.2641,-0.2641,-0.2531,-0.2527,-0.2524,0,0,0,0,0,0,0,0,0,0,0,0,0,-0.2874,-0.2953,-0.2804,-0.2761,-0.2756,-0.2698,-0.2697,-0.2695,-0.2641,-0.2641,-0.2641,-0.264,-0.2532,-0.2527,-0.2523,-0.2498,0,0,-0.251,-0.2508,0,0,0,0,0,0,0,0,-0.2879,-0.2869,-0.2769,-0.2764,-0.2759,-0.2682,-0.271,-0.2629,-0.2641,-0.2685,-0.2641,-0.264,-0.258,-0.2572,-0.2552,-0.2493,-0.2488,-0.2509,-0.2507,-0.2505,-0.2504,0,0,0,0,0,0,0,-0.2885,-0.2873,-0.2762,-0.2767,-0.2761,-0.2747,-0.2735,-0.2694,-0.2634,-0.2681,-0.2677,-0.2665,-0.2577,-0.2557,-0.2549,-0.2487,-0.251,-0.2506,-0.2503,-0.2501,-0.2403,-0.2403,0,0,0,0,0,0,-0.2897,-0.2878,-0.2765,-0.2758,-0.282,-0.2744,-0.2731,-0.2707,-0.2634,-0.2623,-0.2665,-0.2663,-0.2564,-0.2554,-0.2545,-0.2512,-0.2505,-0.2501,-0.2498,-0.2403,-0.2403,-0.2403,0,0,0,0,0,0,-0.2901,-0.2888,-0.2769,-0.2817,-0.2801,-0.2742,-0.2715,-0.2705,-0.2684,-0.2623,-0.2612,-0.2655,-0.2564,-0.2551,-0.2511,-0.2507,-0.2499,-0.2495,-0.2403,-0.2403,-0.2403,-0.2445,0,0,0,0,0,0,-0.2905,-0.2889,-0.288,-0.2817,-0.2798,-0.2737,-0.2715,-0.2703,-0.2677,-0.2673,-0.261,-0.26,-0.2563,-0.2518,-0.2507,-0.2501,-0.2492,-0.2403,-0.2403,-0.2403,-0.2444,-0.2447,-0.2449,0,0,0,0,0,-0.2911,-0.2895,-0.2879,-0.2866,-0.2785,-0.2737,-0.2726,-0.2685,-0.2677,-0.2666,-0.2627,-0.2602,-0.251,-0.2514,-0.2501,-0.2494,-0.2403,-0.2403,-0.2403,-0.2443,-0.2446,-0.2449,0,0,0,0,0,0,-0.2957,-0.2886,-0.2868,-0.2831,-0.2791,-0.2728,-0.2713,-0.2689,-0.265,-0.2647,-0.2597,-0.2583,-0.2548,-0.2517,-0.2523,-0.2467,-0.2454,-0.2451,-0.2489,-0.2491,-0.2494,-0.2502,-0.2488,0,0,0,0,0,-0.2963,-0.2931,-0.287,-0.2843,-0.2824,-0.2773,-0.275,-0.2722,-0.2677,-0.266,-0.2618,-0.2575,-0.2537,-0.2512,-0.2473,-0.2439,-0.2425,-0.2429,-0.2431,-0.2434,-0.2432,-0.2413,-0.2414,-0.2403,-0.2403,-0.2403,0,0,-0.2974,-0.2932,-0.2914,-0.2851,-0.2817,-0.2784,-0.2758,-0.2724,-0.27,-0.2654,-0.2614,-0.2582,-0.2531,-0.2494,-0.2476,-0.2467,-0.2432,-0.2434,-0.2436,-0.2433,-0.2413,-0.2414,-0.2415,-0.2403,-0.2403,-0.2403,0,0,-0.2979,-0.2943,-0.2918,-0.2884,-0.2833,-0.2799,-0.2793,-0.2734,-0.2712,-0.2671,-0.2636,-0.2606,-0.254,-0.2506,-0.248,-0.2474,-0.2449,-0.2463,-0.2476,-0.2458,-0.2459,-0.246,-0.2458,-0.2458,-0.2461,-0.2461,-0.2461,0,-0.3,-0.295,-0.2907,-0.2876,-0.285,-0.2809,-0.2783,-0.2752,-0.269,-0.2673,-0.2665,-0.2583,-0.2545,-0.2501,-0.25,-0.248,-0.2471,-0.2469,-0.2463,-0.2463,-0.2462,-0.2461,-0.246,-0.2463,-0.2463,-0.2463,-0.2463,0,-0.2978,-0.2944,-0.293,-0.2873,-0.2845,-0.2816,-0.2769,-0.2746,-0.2721,-0.2688,-0.2647,-0.2601,-0.2553,-0.2541,-0.2515,-0.2492,-0.2489,-0.2472,-0.2458,-0.2466,-0.2464,-0.2463,-0.2466,-0.2465,-0.2465,-0.2464,0,0,-0.3007,-0.2929,-0.2924,-0.2899,-0.284,-0.2813,-0.2782,-0.2737,-0.2718,-0.2677,-0.2651,-0.2597,-0.2582,-0.2553,-0.2523,-0.2507,-0.2507,-0.2492,-0.2491,-0.2497,-0.248,-0.2494,-0.2493,-0.249,-0.249,-0.2489,-0.2485,0,-0.3004,-0.2949,-0.2911,-0.287,-0.2839,-0.2801,-0.2774,-0.2735,-0.2704,-0.2673,-0.2638,-0.2601,-0.2583,-0.2566,-0.2549,-0.2511,-0.2503,-0.251,-0.2465,-0.2464,-0.2479,-0.2492,-0.2505,-0.2503,-0.2483,-0.2483,-0.2483,0,-0.2992,-0.2954,-0.2912,-0.2858,-0.2843,-0.282,-0.2776,-0.2747,-0.2702,-0.268,-0.2649,-0.2619,-0.2585,-0.2575,-0.2528,-0.2534,-0.2513,-0.2492,-0.2491,-0.2485,-0.2474,-0.2487,-0.2501,-0.2501,-0.2481,-0.2481,-0.2481,0,-0.3019,-0.2957,-0.2924,-0.2903,-0.2839,-0.2824,-0.2797,-0.2752,-0.2728,-0.2689,-0.2672,-0.263,-0.2607,-0.2574,-0.2534,-0.2529,-0.2492,-0.2477,-0.2473,-0.2474,-0.2466,-0.2467,-0.2478,-0.2453,-0.2453,-0.2453,-0.2453,0,-0.3019,-0.2994,-0.2935,-0.2914,-0.2886,-0.2843,-0.2815,-0.2785,-0.2746,-0.2719,-0.2682,-0.2657,-0.2605,-0.2574,-0.2542,-0.2509,-0.2498,-0.248,-0.2472,-0.2483,-0.2486,-0.2469,-0.2468,-0.2453,-0.2453,-0.2453,-0.2453,0,-0.3043,-0.3002,-0.2964,-0.2907,-0.2893,-0.2874,-0.2826,-0.2805,-0.2772,-0.2738,-0.2728,-0.2677,-0.2638,-0.2595,-0.2542,-0.252,-0.249,-0.2477,-0.2505,-0.2501,-0.2499,-0.25,-0.25,-0.2498,-0.2474,-0.2474,-0.2474,0,-0.3046,-0.3027,-0.2969,-0.2949,-0.2923,-0.289,-0.2866,-0.2823,-0.2799,-0.2747,-0.2733,-0.2692,-0.2657,-0.2597,-0.2555,-0.2515,-0.2501,-0.2504,-0.2495,-0.2508,-0.2502,-0.2504,-0.2502,-0.2507,-0.2507,-0.2508,-0.2508,0,-0.3056,-0.3037,-0.3003,-0.2964,-0.2936,-0.2902,-0.2866,-0.2852,-0.2801,-0.2776,-0.2737,-0.2711,-0.2657,-0.2618,-0.2572,-0.2543,-0.2517,-0.2511,-0.2508,-0.252,-0.2537,-0.2529,-0.2513,-0.2511,-0.2511,-0.2511,-0.251,-0.251,-0.3069,-0.3051,-0.3008,-0.2972,-0.2942,-0.291,-0.2888,-0.2854,-0.2821,-0.2775,-0.2751,-0.2713,-0.267,-0.2607,-0.2579,-0.2549,-0.254,-0.2535,-0.2534,-0.2534,-0.2538,-0.2543,-0.254,-0.254,-0.254,-0.254,-0.254,0,-0.3078,-0.3049,-0.3016,-0.2969,-0.2941,-0.2921,-0.2881,-0.2859,-0.2826,-0.2789,-0.2756,-0.2712,-0.2674,-0.263,-0.2589,-0.2573,-0.256,-0.2564,-0.2564,-0.2559,-0.2547,-0.2554,-0.2575,-0.2575,-0.2575,-0.2575,-0.2575,-0.2575,-0.3079,-0.3047,-0.3024,-0.2976,-0.2947,-0.2911,-0.289,-0.2861,-0.2831,-0.2784,-0.2753,-0.2725,-0.2685,-0.2641,-0.2605,-0.2593,-0.258,-0.2587,-0.2572,-0.2562,-0.2559,-0.2556,-0.2563,-0.2585,-0.2585,-0.2585,-0.2585,-0.2585]},{"header":{"parameterUnit":"m.s-1","parameterCategory":1,"la1":30.2991,"la2":30.254,"lo1":-89.0895,"lo2":-89.0444,"dy":0.0017,"dx":0.0017,"nx":28,"ny":28,"refTime":"2025-11-19T03:00:00:Z","depth":0,"parameterNumber":3,"parameterNumberName":"V-component_of_WINDS"},"data":[0,0,0,0,0,0,0,0,0,0,0,0,0,0,0,0,0,0,0,0,0,0,0,0,0,0,0,0,0,0,0,0,0,0,0,0,0,0,0,0,0,0,0,0,0,0,0,0,0,0,0,0,0,0,0,0,0,0,1.5344,1.5344,0,1.5288,1.5287,1.5286,1.5276,1.5276,1.5277,1.5277,1.5212,1.521,1.5208,0,0,0,0,0,0,0,0,0,0,0,0,0,1.5437,1.5435,1.5344,1.5344,1.5343,1.5288,1.5287,1.5286,1.5276,1.5276,1.5277,1.5278,1.5213,1.5211,1.5208,0,0,0,0,0,0,0,0,0,0,0,0,0,1.539,1.5435,1.5344,1.5331,1.533,1.5288,1.5287,1.5286,1.5276,1.5277,1.5277,1.5278,1.5214,1.5211,1.5208,1.5173,0,0,1.5198,1.5196,0,0,0,0,0,0,0,0,1.5393,1.5386,1.5334,1.5332,1.533,1.529,1.5296,1.5248,1.5276,1.5296,1.5277,1.5278,1.5237,1.5232,1.522,1.517,1.5167,1.5197,1.5195,1.5194,1.5193,0,0,0,0,0,0,0,1.5396,1.5389,1.5322,1.5333,1.5331,1.5326,1.532,1.5287,1.5263,1.5294,1.5293,1.5287,1.5236,1.5223,1.5218,1.5166,1.5197,1.5195,1.5193,1.5191,1.5084,1.5083,0,0,0,0,0,0,1.5402,1.5392,1.5323,1.532,1.5364,1.5324,1.5317,1.5302,1.5263,1.5258,1.5287,1.5287,1.5228,1.5222,1.5216,1.5171,1.5194,1.5191,1.5189,1.5085,1.5084,1.5083,0,0,0,0,0,0,1.5404,1.5396,1.5326,1.5356,1.5346,1.5322,1.5304,1.53,1.5287,1.5258,1.5253,1.5278,1.5228,1.522,1.5184,1.5169,1.5189,1.5187,1.5086,1.5084,1.5083,1.5084,0,0,0,0,0,0,1.5407,1.5397,1.5385,1.5356,1.5345,1.5297,1.5303,1.5299,1.5282,1.5282,1.5248,1.5243,1.5228,1.5189,1.5181,1.5165,1.5184,1.5087,1.5085,1.5084,1.5085,1.5083,1.5081,0,0,0,0,0,1.541,1.5386,1.5385,1.5377,1.533,1.5296,1.529,1.5275,1.5281,1.5268,1.5249,1.5244,1.5173,1.5185,1.5176,1.5159,1.5088,1.5086,1.5084,1.5086,1.5083,1.5081,0,0,0,0,0,0,1.5413,1.5382,1.538,1.5346,1.5324,1.5295,1.5277,1.5273,1.5247,1.5248,1.5229,1.5221,1.5185,1.5169,1.5183,1.5123,1.513,1.5126,1.5135,1.5132,1.513,1.5134,1.5181,0,0,0,0,0,1.541,1.5387,1.5361,1.5334,1.5323,1.5302,1.5287,1.5278,1.5253,1.5243,1.5222,1.5196,1.5168,1.5149,1.5121,1.5083,1.5074,1.5067,1.5065,1.5063,1.5059,1.5036,1.5031,1.5076,1.5076,1.5076,0,0,1.5402,1.5383,1.537,1.5334,1.5315,1.529,1.5294,1.5268,1.5248,1.5238,1.5203,1.5186,1.5156,1.5119,1.5101,1.5103,1.5045,1.506,1.5059,1.5056,1.5033,1.5029,1.5025,1.5075,1.5075,1.5075,0,0,1.5376,1.536,1.5335,1.5317,1.5291,1.5277,1.5271,1.5242,1.5232,1.5197,1.5189,1.5164,1.5116,1.5095,1.5077,1.5043,1.5037,1.5035,1.5023,1.5,1.4997,1.4994,1.498,1.4975,1.5031,1.5031,1.5031,0,1.5369,1.5334,1.5322,1.5296,1.528,1.5273,1.5246,1.5228,1.5193,1.518,1.5185,1.5124,1.5104,1.506,1.5052,1.5039,1.5029,1.5038,1.4999,1.4995,1.4992,1.4978,1.4973,1.5031,1.5031,1.5031,1.5031,0,1.5326,1.5301,1.5284,1.5252,1.5234,1.5208,1.519,1.5172,1.5165,1.5151,1.5114,1.5089,1.5056,1.5045,1.5037,1.5,1.5002,1.5003,1.501,1.4988,1.4975,1.4969,1.5031,1.5031,1.5031,1.5031,0,0,1.5298,1.5262,1.5255,1.5241,1.5211,1.519,1.5163,1.5133,1.5117,1.5093,1.5068,1.5028,1.5028,1.5009,1.4998,1.4979,1.4951,1.4981,1.498,1.4975,1.4907,1.4905,1.4899,1.4948,1.4947,1.4946,1.4909,0,1.5267,1.522,1.5209,1.5168,1.5144,1.5137,1.5113,1.509,1.5076,1.5052,1.5035,1.5006,1.501,1.4998,1.4979,1.4959,1.4937,1.4962,1.4921,1.492,1.4928,1.4893,1.4891,1.4857,1.4903,1.4903,1.4902,0,1.5224,1.5201,1.5158,1.5132,1.5121,1.51,1.5071,1.5049,1.5022,1.5013,1.4992,1.4983,1.4952,1.4962,1.4917,1.4934,1.4917,1.4905,1.4903,1.4897,1.4908,1.4884,1.4846,1.484,1.4894,1.4895,1.4895,0,1.5206,1.5164,1.5133,1.5121,1.5089,1.5074,1.506,1.5035,1.5018,1.4992,1.4979,1.4949,1.4932,1.4908,1.4891,1.49,1.4847,1.4855,1.4836,1.4836,1.4823,1.4824,1.4779,1.4815,1.4816,1.4816,1.4816,0,1.5171,1.5144,1.5125,1.5105,1.5075,1.5062,1.5031,1.5016,1.4994,1.497,1.4962,1.4938,1.4918,1.4891,1.4877,1.4841,1.4834,1.4823,1.4819,1.4823,1.4824,1.481,1.4811,1.4814,1.4815,1.4815,1.4815,0,1.5145,1.5131,1.5096,1.507,1.5062,1.5041,1.5017,1.4996,1.4983,1.4952,1.4944,1.4921,1.4889,1.487,1.4829,1.482,1.4779,1.4777,1.4788,1.4786,1.4767,1.4768,1.471,1.4701,1.4745,1.4745,1.4745,0,1.5122,1.5102,1.5074,1.5059,1.5045,1.502,1.5002,1.4988,1.497,1.4939,1.4921,1.489,1.4864,1.4813,1.4791,1.4759,1.4755,1.4737,1.475,1.4754,1.4752,1.4753,1.475,1.4734,1.4734,1.4733,1.4733,0,1.5084,1.5078,1.5055,1.5029,1.5009,1.4987,1.4965,1.4952,1.4933,1.4913,1.4882,1.4862,1.4821,1.4789,1.4755,1.4738,1.4731,1.473,1.4723,1.4725,1.4732,1.4726,1.478,1.473,1.4731,1.4731,1.4731,1.4731,1.5057,1.5039,1.5016,1.499,1.4973,1.4952,1.4932,1.4916,1.4891,1.4858,1.4851,1.4817,1.4791,1.4746,1.4727,1.4699,1.4702,1.4693,1.469,1.4687,1.4686,1.4738,1.4693,1.4693,1.4693,1.4693,1.4693,0,1.5017,1.5003,1.4979,1.4949,1.4928,1.4928,1.4903,1.4884,1.4856,1.4833,1.4808,1.4771,1.474,1.4716,1.4683,1.4665,1.4661,1.4657,1.4657,1.4652,1.4686,1.4695,1.466,1.466,1.466,1.466,1.466,1.466,1.4993,1.4961,1.4953,1.4911,1.4896,1.4866,1.4851,1.4832,1.4813,1.4774,1.4748,1.4734,1.471,1.4676,1.4646,1.4639,1.4627,1.4622,1.4615,1.4647,1.465,1.4653,1.4661,1.462,1.462,1.4583,1.4582,1.4582]}]]